www.pogodaiklimat.ru

Погода и климат >> Архив погоды >> Шри Ланка >> Анурадхапура


ПОГОДА в Анурадхапуре

  • Прогноз погоды в Анурадхапуре
  • Монитор погоды в Анурадхапуре

АРХИВ ПОГОДЫ в Анурадхапуре

Время (UTC), дата Ветер
(напр.,м/с)
 
Видим.   Явления Облачность Т
(С)
Тd
(С)
f
(%)
Тe
(С)
Тes
(С)
Комфортность P
(гПа)
Po
(гПа)
Тmin
(С)
Tmax
(С)
R
(мм)
R24
(мм)
S
(см)
12 18.06 ЮЗ 4 20 км 8/4 540 м
[Cu hum Ci fib]
+31.5 +23.5 63 +43 +43 опасность
перегрева
1006.0 995.6 +35.3
18 18.06 ЮЗ 2 20 км 5/0
[Ci fib]
+27.7 +24.9 85 +40 +40 очень
душно
1008.5 998.0
09 19.06 ЮЗ 4 20 км 6/4 540 м
[Cu med, cong Ci fib]
+34.1 +23.3 53 +44 +50 опасность
перегрева
1004.8 994.6
12 19.06 ЮЗ 4 20 км 9/1 540 м
[Cu hum Cs]
+31.5 +24.3 66 +44 +44 опасность
перегрева
1005.0 994.7 +34.9
18 19.06 ЮЗ 4 20 км 5/1 540 м
[Cu hum Cs]
+27.9 +25.2 85 +40 +40 очень
душно
1007.5 997.0
21 19.06 ЮЗ 4 20 км 6/3 540 м
[Cb cap Cs]
+27.7 +24.7 84 +39 +39 очень
душно
1006.4 995.9
15 20.06 ЮЗ 5 20 км 5/1 540 м
[Cu hum Cs]
+28.5 +24.5 79 +40 +40 очень
душно
1006.7 996.2
18 20.06 ЮЗ 3 20 км 8/4 540 м
[Cu hum Cs]
+27.9 +24.9 84 +40 +40 очень
душно
1007.7 997.2
00 21.06 ЮЗ 3 20 км 8/5 540 м
[Cu hum Ci fib]
+26.5 +24.3 88 +37 +37 очень
душно
1005.9 995.4
09 21.06 ЮЗ 5 20 км 8/1 540 м
[Cu hum Cs]
+33.6 +22.6 53 +43 +49 опасность
перегрева
1004.9 994.6
12 21.06 З 2 20 км 10/1 540 м
[Cu hum Cs]
+31.0 +23.8 66 +43 +43 опасность
перегрева
1005.2 994.9 +34.9
18 21.06 ЮЗ 2 20 км 4/0
[Cs]
+27.8 +24.3 81 +39 +39 очень
душно
1007.0 996.5
21 21.06 ЮЗ 3 20 км 8/0
[Cs]
+27.7 +23.7 79 +38 +38 очень
душно
1005.8 995.3
12 22.06 ЮЗ 4 20 км 8/1 540 м
[Cu hum Ac trans Cs]
+30.7 +23.1 64 +41 +41 опасность
перегрева
1004.5 994.1 +34.4
15 22.06 ЮЗ 3 20 км 3/3 540 м
[Cu hum]
+28.1 +22.8 73 +37 +37 очень
душно
1006.7 996.2
00 23.06 ЮЗ 2 20 км 5/0
[Ac trans Ci fib]
+26.8 +24.2 86 +37 +37 очень
душно
1005.7 995.2
03 23.06 ЮЗ 2 20 км 6/1 540 м
[Cu hum Ac trans]
+28.6 +24.5 79 +41 +45 опасность
перегрева
1006.0 995.5 +26.7
09 23.06 ЮЗ 4 20 км 5/5 540 м
[Cu hum]
+34.9 +23.7 52 +46 +51 опасность
перегрева
1003.8 993.6
12 23.06 ЮЗ 4 20 км 8/1 540 м
[Cu hum Ac trans]
+31.0 +23.8 66 +43 +43 опасность
перегрева
1004.3 994.0 +35.5
18 23.06 Ю 3 20 км 1/1 540 м
[Cu hum]
+27.7 +24.7 84 +39 +39 очень
душно
1006.6 996.1
21 23.06 Ю 2 20 км 4/0
[Ac trans]
+27.4 +24.8 86 +39 +39 очень
душно
1005.7 995.2
03 24.06 ЮЗ 4 20 км 5/5 540 м
[Cu hum]
+29.4 +25.1 78 +43 +45 опасность
перегрева
1007.4 997.0 +26.7
06 24.06 ЮЗ 5 20 км 5/5 540 м
[Cu hum]
+34.1 +23.5 54 +45 +50 опасность
перегрева
1006.5 996.2
09 24.06 ЮЗ 4 20 км 5/5 540 м
[Cu hum]
+34.1 +22.7 52 +44 +49 опасность
перегрева
1005.0 994.8
12 24.06 ЮЗ 3 20 км 4/1 540 м
[Cu hum Ci sp]
+32.0 +23.7 62 +43 +44 опасность
перегрева
1004.9 994.6 +35.4
15 24.06 ЮЗ 2 20 км ясно +28.9 +24.3 76 +40 +40 очень
душно
1006.7 996.2
06 25.06 ЮЗ 3 20 км 9/5 540 м
[Cu hum Cs]
+31.8 +22.8 59 +42 +49 опасность
перегрева
1007.8 997.4
09 25.06 ЮЗ 5 20 км 10/6 540 м
[Cu med, cong Cs]
+33.2 +22.7 54 +43 +45 опасность
перегрева
1005.9 995.6

 

Местоположение метеостанции Анурадхапура (Шри Ланка): широта 8.33 долгота 80.42 высота над уровнем моря 89 м.

В архиве по умолчанию представлена погода в Анурадхапуре за последнюю неделю. Архивные данные за месяц целиком и за предыдущие месяцы, начиная с января 2011 года, Вы можете получить, выбрав интересующий диапазон дат из раскрывающегося списка и нажав кнопку "Ввод!".


*Определитесь, кто Вы:
робот инопланетянин человек

Внимание! Время в таблицах - всемирное. Для получения местного времени необходимо прибавить поправку, которая равна 6 ч.

Смотрите также архив погоды в соседних городах и на ближайших метеорологических станциях:

Погода в Маха Иллуппаллама (Шри Ланка) (24 км)
Погода в Вавунии (Шри Ланка) (48 км)
Погода в Путталаме (Шри Ланка) (73 км)
Погода в Маннаре (Шри Ланка) (91 км)
Погода в Тринкомали (Шри Ланка) (95 км)
Погода в Курунегала (Шри Ланка) (96 км)
Погода в Канди (Шри Ланка) (114 км)
Погода в Аэропорту Бандаранаайк (Шри Ланка) (142 км)
Погода в Джафне (Шри Ланка) (153 км)
Погода в Нувара Элия (Шри Ланка) (156 км)

Пояснения к столбцам:

Ветер - указаны скорость ветра в м/с - средняя за 10 мин, порывы в срок и между сроками (в фигурных скобках) и направление, откуда дует ветер: С - северный, СВ - северо-восточный, В - восточный, ЮВ - юго-восточный, Ю - южный, ЮЗ - юго-западный, З - западный, СЗ - северо-западный.
Видимость - горизонтальная дальность видимости в метрах или километрах. При видимости от 1 до 10 км при отсутствии осадков обычно наблюдается дымка, при ухудшении видимости до 1 км и менее - туман. В сухую погоду видимость может ухудшаться дымом, пылью или мглою.
Явления - указаны атмосферные явления, наблюдавшиеся в срок или в последний час перед сроком; фигурными скобками обозначены явления, наблюдавшиеся между сроками (за 1-3 часа до срока); квадратными скобками обозначены град или гололедные отложения с указанием их диаметра в мм.
Облачность - указаны через наклонную черту общая и нижняя облачность в баллах и высота нижней границы облаков в метрах; квадратными скобками обозначены формы облаков: Ci - перистые, Cs - перисто-слоистые, Cc - перисто-кучевые, Ac - высококучевые, As - высокослоистые, Sc - слоисто-кучевые, Ns - слоисто-дождевые, Cu - кучевые, Cb - кучево-дождевые. Подробнее классификацию облаков см. в Атласе облаков (PDF).
T - Температура воздуха - температура, измеренная на высоте 2 м над землей.
Td - Температура точки росы - температура, при понижении до которой содержащийся в воздухе водяной пар достигнет насыщения.
f - Относительная влажность воздуха - влажноcть воздуха, измеренная на высоте 2 м над землей.
Te - Эффективная температура - температура, которую ощущает одетый по сезону человек в тени. Характеристика душности погоды. При расчете учитывается влияние влажности воздуха и скорости ветра на теплоощущения человека.
Tes - Эффективная температура на солнце - температура, которую ощущает человек, с поправкой на солнечный нагрев. Характеристика знойности погоды. Зависит от высоты солнца над горизонтом, облачности и скорости ветра. Ночью, в пасмурную погоду, а также при ветре 12 м/с и более поправка равна нулю.
P - Атмосферное давление - приведенное к уровню моря атмосферное давление.
Po - Атмосферное давление - измеренное на уровне метеостанции атмосферное давление.
Tmin - Минимальная температура - минимум температуры воздуха на высоте 2 м над землей.
Tmax - Максимальная температура - максимум температуры воздуха на высоте 2 м над землей.
R - Количество осадков - Количество выпавших осадков за период времени, мм. При наведении курсора мыши на число - период времени, за который выпало указанное количество осадков.
R24 - Количество осадков - Количество выпавших осадков за 24 часа, мм.
S - Снежный покров - Высота снежного покрова, см. При наведении курсора мыши на число - состояние снежного покрова и степень покрытия местности в баллах.